User: anonymous   Login
Location: Unspecified
(51.0950°N, 12.9690°E)
Time: 11:38:04
(UTC+00:00)
Language:

SL-08 RB Rocket - Orbit

View from above orbital plane
View from above orbital plane
View from above satellite
View from above satellite

Ground track
Ground track

The orbit data is extracted from the following two-line orbital elements,

1 26387U 00033D   22017.80523856  .00000485  00000-0  90479-4 0  9991
2 26387  97.7560  42.6911 0027140  34.7518 138.1753 14.68841959411488
Epoch (UTC): 17 January 2022 19:19:32
Eccentricity: 0.0027140
inclination: 97.7560°
perigee height: 645 km
apogee height: 684 km
right ascension of ascending node: 42.6911°
argument of perigee: 34.7518°
revolutions per day: 14.68841959
mean anomaly at epoch: 138.1753°
orbit number at epoch: 41148

The dashed part of the orbit path shows where the satellite is in the earth's shadow,  

DLR